Tracking 17145 objects as of 30-May-2015
HD Live streaming from Space Station

NAVSTAR 30 (USA 88)

Track NAVSTAR 30 (USA 88) now!
NAVSTAR 30 (USA 88) is classified as:


NORAD ID: 22446
Int'l Code: 1993-007A
Perigee: 21,288.3 km
Apogee: 21,413.4 km
Inclination: 55.3 °
Period: 765.6 minutes
Semi major axis: 27721 km
RCS: 2.5118 m2 (large)
Launch date: February 3, 1993
Source: United States (US)
PRN:
Your satellite tracking list
Your tracking list is empty





NASA's NSSDC Master Catalog

Two Line Element Set (TLE):
1 22446U 93007A   15150.14708322 -.00000074  00000-0  00000+0 0  9997
2 22446 055.3473 025.9999 0022566 322.0741 232.7937 01.88092111158132

Source of the keplerian elements: AFSPC

N2YO: 286